Location: Eferding
(48.3167°N, 14.0167°E)
Time: 21:23:15
(UTC+00:00)

Cosmos 2151 - Pass Details

Date: 12 November 2019
Orbit: 581 x 602 km, 82.5° (Epoch: 12 December)

Event Time Altitude Azimuth Distance (km) Brightness Sun altitude
Rises 15:57:12 0° 347° (NNW) 2,857 6.4 -5.1°
Reaches altitude 10° 15:59:27 10° 343° (NNW) 1,946 5.6 -5.4°
Maximum altitude 16:03:40 58° 265° (W) 697 3.8 -6.1°
Drops below altitude 10° 16:07:50 10° 186° (S) 1,918 5.9 -6.7°
Sets 16:10:02 0° 183° (S) 2,810 6.7 -7.1°
